This is the latest recevied weather packets stored in our database for station/object KJ5IIV. If no packets are shown the sender has not sent any weather packets the latest 10 day(s).
| Time | Temp. | Humidity | Pressure | Rain* | Wind** | Luminosity | Snow |
|---|---|---|---|---|---|---|---|
| 1777907323 | 21.67° C | 55% | 1014.6 hPa | 0 mm | - | 591 W/m² | - |
| 1777907019 | 21.67° C | 56% | 1014.9 hPa | 0 mm | - | 589 W/m² | - |
| 1777906717 | 21.67° C | 56% | 1014.7 hPa | 0 mm | - | 580 W/m² | - |
| 1777906413 | 21.11° C | 56% | 1014.5 hPa | 0 mm | - | 569 W/m² | - |
| 1777906110 | 21.11° C | 57% | 1014.7 hPa | 0 mm | - | 545 W/m² | - |
| 1777905806 | 21.67° C | 57% | 1014.9 hPa | 0 mm | - | 550 W/m² | - |
| 1777905504 | 21.67° C | 57% | 1014.5 hPa | 0 mm | - | 533 W/m² | - |
| 1777905201 | 21.67° C | 59% | 1014.8 hPa | 0 mm | - | 517 W/m² | - |
| 1777904898 | 21.11° C | 61% | 1014.9 hPa | 0 mm | - | 492 W/m² | - |
| 1777904595 | 20.56° C | 62% | 1014.8 hPa | 0 mm | - | 472 W/m² | - |
| 1777904292 | 20.56° C | 61% | 1015 hPa | 0 mm | - | 422 W/m² | - |
| 1777903989 | 20.56° C | 61% | 1015 hPa | 0 mm | - | 426 W/m² | - |
| 1777903686 | 20.56° C | 62% | 1015 hPa | 0 mm | - | 411 W/m² | - |
| 1777903382 | 20° C | 65% | 1014.7 hPa | 0 mm | - | 388 W/m² | - |
| 1777903078 | 20° C | 66% | 1015.1 hPa | 0 mm | - | 334 W/m² | - |
| 1777902775 | 19.44° C | 64% | 1015 hPa | 0 mm | - | 266 W/m² | - |
| 1777902473 | 19.44° C | 67% | 1015 hPa | 0 mm | - | 286 W/m² | - |
| 1777902169 | 18.89° C | 66% | 1014.9 hPa | 0 mm | - | 281 W/m² | - |
| 1777901867 | 18.89° C | 69% | 1014.9 hPa | 0 mm | - | 294 W/m² | - |
| 1777901564 | 18.33° C | 68% | 1014.9 hPa | 0 mm | - | 283 W/m² | - |
| 1777901262 | 17.78° C | 69% | 1015.1 hPa | 0 mm | - | 240 W/m² | - |
| 1777900959 | 17.78° C | 70% | 1015 hPa | 0 mm | - | 236 W/m² | - |
| 1777900657 | 17.78° C | 70% | 1014.8 hPa | 0 mm | - | 216 W/m² | - |
| 1777900354 | 17.78° C | 70% | 1014.8 hPa | 0 mm | - | 201 W/m² | - |
| 1777900050 | 17.78° C | 69% | 1014.7 hPa | 0 mm | - | 234 W/m² | - |
* Rain latest hour (hover to see other rain measurements)
** Current wind speed in m/s (hover to see current wind gust speed)